Location: Asheville, NC
(35.6000°N, 82.5500°W)
Time: 14:59:39
(UTC-05:00)

Vanguard 1 - Pass Details

Date: 12 December 2017
Orbit: 649 x 3834 km, 34.3° (Epoch: 17 January)

Event Time Altitude Azimuth Distance (km) Brightness Sun altitude
Rises 14:49:11 0° 282° (WNW) 6,286 14.5 22.0°
Reaches altitude 10° 14:54:07 10° 279° (W) 4,748 14.0 21.4°
Maximum altitude 15:05:33 57° 205° (SSW) 1,551 12.1 19.9°
Drops below altitude 10° 15:11:50 10° 127° (SE) 2,684 12.3 19.1°
Sets 15:13:54 0° 123° (ESE) 3,419 12.8 18.9°
